UAL1328 KSAT-KMEM

Flight info

Callsign UAL1328
Flight time N/A
Altitude 39000
Route SNIDR2 BLUMS DCT IAH J29 ELD HOBRK4
Aircraft B736/M-SDE2E3FGHIRWXY/LB1

Departure

Time 2026-04-25 21:25
Airport San Antonio International Airport (KSAT)

Arrival

Time N/A
Airport Memphis International Airport (KMEM)
Time Latitude Longitude Altitude Speed Heading
2026-04-25 20:58 29.52642 -98.47039 788 ft 0 kts 312°
2026-04-25 21:11 29.52641 -98.47039 790 ft 0 kts 312°
2026-04-25 21:12 29.52633 -98.47024 790 ft 2 kts 277°
2026-04-25 21:12 29.52637 -98.47007 789 ft 2 kts 228°
2026-04-25 21:12 29.52644 -98.46999 789 ft 0 kts 223°
2026-04-25 21:17 29.52643 -98.47000 789 ft 1 kts 220°
2026-04-25 21:18 29.52603 -98.46993 788 ft 7 kts 156°
2026-04-25 21:18 29.52577 -98.46977 788 ft 0 kts 153°
2026-04-25 21:21 29.52552 -98.46962 787 ft 6 kts 168°
2026-04-25 21:21 29.52516 -98.46989 788 ft 6 kts 221°
2026-04-25 21:21 29.52482 -98.47022 788 ft 6 kts 220°
2026-04-25 21:21 29.52449 -98.47055 788 ft 6 kts 218°
2026-04-25 21:22 29.52409 -98.47066 787 ft 4 kts 170°
2026-04-25 21:22 29.52395 -98.47058 786 ft 0 kts 145°
2026-04-25 21:23 29.52386 -98.47047 786 ft 6 kts 135°
2026-04-25 21:23 29.52355 -98.47005 786 ft 6 kts 120°
2026-04-25 21:23 29.52363 -98.46959 787 ft 6 kts 57°
2026-04-25 21:23 29.52388 -98.46927 786 ft 0 kts 41°
2026-04-25 21:24 29.52571 -98.46746 791 ft 74 kts 40°
2026-04-25 21:24 29.53156 -98.46170 798 ft 144 kts 41°
2026-04-25 21:24 29.54040 -98.45372 1152 ft 166 kts 40°
2026-04-25 21:25 29.54893 -98.44487 1881 ft 174 kts 44°
2026-04-25 21:25 29.55873 -98.43564 2504 ft 196 kts 42°
2026-04-25 21:25 29.57039 -98.42509 2853 ft 233 kts 40°
2026-04-25 21:25 29.58384 -98.41263 3287 ft 259 kts 41°
2026-04-25 21:26 29.59816 -98.39902 4004 ft 277 kts 40°
2026-04-25 21:26 29.61304 -98.38472 4655 ft 280 kts 42°
2026-04-25 21:26 29.62795 -98.37041 4916 ft 282 kts 41°
2026-04-25 21:26 29.64270 -98.35526 4923 ft 286 kts 51°
2026-04-25 21:27 29.65031 -98.33493 5126 ft 270 kts 92°
2026-04-25 21:27 29.64958 -98.31317 5845 ft 278 kts 95°
2026-04-25 21:27 29.64896 -98.29066 6440 ft 284 kts 93°
2026-04-25 21:27 29.64861 -98.26811 7019 ft 289 kts 94°
2026-04-25 21:28 29.64847 -98.24472 7617 ft 295 kts 92°
2026-04-25 21:28 29.64930 -98.22095 8237 ft 298 kts 86°
2026-04-25 21:28 29.65151 -98.19728 9005 ft 300 kts 84°
2026-04-25 21:28 29.65408 -98.17342 10046 ft 299 kts 83°
2026-04-25 21:29 29.65647 -98.15004 11261 ft 290 kts 83°
2026-04-25 21:29 29.65856 -98.12701 12226 ft 293 kts 84°
2026-04-25 21:29 29.66052 -98.10300 12735 ft 313 kts 84°
2026-04-25 21:29 29.66241 -98.07706 13102 ft 336 kts 85°
2026-04-25 21:30 29.66417 -98.04992 13815 ft 343 kts 85°
2026-04-25 21:30 29.66571 -98.02284 14881 ft 334 kts 86°
2026-04-25 21:30 29.66702 -97.99649 15984 ft 327 kts 86°
2026-04-25 21:30 29.66778 -97.97911 16525 ft 331 kts 86°
2026-04-25 21:31 29.66912 -97.94256 17067 ft 356 kts 87°
2026-04-25 21:31 29.66999 -97.91333 17391 ft 374 kts 88°
2026-04-25 21:31 29.67070 -97.88324 18172 ft 376 kts 88°
2026-04-25 21:31 29.67119 -97.85344 19178 ft 368 kts 88°
2026-04-25 21:32 29.67144 -97.82455 20116 ft 364 kts 88°
2026-04-25 21:32 29.67148 -97.79514 20709 ft 374 kts 89°
2026-04-25 21:32 29.67133 -97.76450 20979 ft 392 kts 89°
2026-04-25 21:32 29.67104 -97.73244 21294 ft 408 kts 89°
2026-04-25 21:33 29.67060 -97.69965 21992 ft 410 kts 89°
2026-04-25 21:33 29.67001 -97.66712 23017 ft 404 kts 89°
2026-04-25 21:33 29.66928 -97.63499 23863 ft 401 kts 89°
2026-04-25 21:33 29.66841 -97.60270 24363 ft 409 kts 89°
2026-04-25 21:34 29.66741 -97.56937 24623 ft 425 kts 89°
2026-04-25 21:34 29.66625 -97.53482 24910 ft 438 kts 90°
2026-04-25 21:34 29.66495 -97.49960 25476 ft 441 kts 90°
2026-04-25 21:34 29.66350 -97.46453 26298 ft 436 kts 90°
2026-04-25 21:35 29.66194 -97.42980 27113 ft 434 kts 90°
2026-04-25 21:35 29.66026 -97.39506 27660 ft 439 kts 90°
2026-04-25 21:35 29.65846 -97.35948 27910 ft 452 kts 90°
2026-04-25 21:35 29.65649 -97.32283 28093 ft 465 kts 91°
2026-04-25 21:36 29.65435 -97.28534 28506 ft 471 kts 91°
2026-04-25 21:36 29.65207 -97.24823 29202 ft 470 kts 91°
2026-04-25 21:36 29.64958 -97.21044 29985 ft 466 kts 91°
2026-04-25 21:36 29.64698 -97.17373 30490 ft 468 kts 92°
2026-04-25 21:37 29.64419 -97.13612 30747 ft 477 kts 92°
2026-04-25 21:37 29.64320 -97.12322 30795 ft 481 kts 92°
2026-04-25 21:37 29.63807 -97.05833 31066 ft 497 kts 93°
2026-04-25 21:37 29.63474 -97.01872 31525 ft 498 kts 93°
2026-04-25 21:38 29.63117 -96.97931 32149 ft 494 kts 94°
2026-04-25 21:38 29.62727 -96.94012 32720 ft 493 kts 95°
2026-04-25 21:38 29.62348 -96.90479 33016 ft 497 kts 95°
2026-04-25 21:38 29.61894 -96.86497 33107 ft 507 kts 96°
2026-04-25 21:39 29.60889 -96.78329 33350 ft 522 kts 97°
2026-04-25 21:39 29.60339 -96.74194 33803 ft 521 kts 97°